When you browse on this site, cookies collect data to enhance your experience and personalize the content and advertising you see.
Visit our Privacy Policy to learn more. By continuing to use the site, you agree to this use of cookies and data.
  • In Hungary
  • List of Countries
  • For 7 days
  • Water Temperature
  • Satellite Maps
  • Weather Map
  • News
  • Weather Widgets
  • user-avatar
    Login

    Hourly Weather Repczyce

    Today, 21 May, Tuesday

    Time Temperature Precipitation Wind Pressure Humidity
    00:00 +18°C° 0 mm 4 mps 740 mmHg 91%
    01:00 +18°C° 0 mm 4 mps 740 mmHg 90%
    02:00 +17°C° 0 mm 4 mps 740 mmHg 90%
    03:00 +17°C° 0 mm 4 mps 740 mmHg 91%
    04:00 +17°C° 0 mm 4 mps 740 mmHg 93%
    05:00 +15°C° 0 mm 4 mps 740 mmHg 95%
    06:00 +17°C° 0 mm 4 mps 740 mmHg 92%
    07:00 +17°C° 0 mm 5 mps 740 mmHg 89%
    08:00 +19°C° 0 mm 6 mps 740 mmHg 86%
    09:00 +20°C° 0 mm 6 mps 740 mmHg 84%
    10:00 +20°C° 0 mm 6 mps 740 mmHg 81%
    11:00 +21°C° 0 mm 6 mps 739 mmHg 78%
    12:00 +20°C° 0.4 mm 6 mps 739 mmHg 80%
    13:00 +20°C° 0.4 mm 6 mps 739 mmHg 81%
    14:00 +20°C° 0.4 mm 6 mps 739 mmHg 82%
    15:00 +20°C° 0.3 mm 7 mps 738 mmHg 80%
    16:00 +20°C° 0.3 mm 7 mps 738 mmHg 78%
    17:00 +21°C° 0.3 mm 7 mps 738 mmHg 75%
    18:00 +19°C° 0 mm 6 mps 738 mmHg 77%
    19:00 +17°C° 0 mm 5 mps 738 mmHg 79%
    20:00 +15°C° 0 mm 5 mps 738 mmHg 81%
    21:00 +14°C° 0 mm 4 mps 738 mmHg 82%
    22:00 +13°C° 0 mm 4 mps 738 mmHg 83%
    23:00 +12°C° 0 mm 4 mps 738 mmHg 83%

    Tomorrow, 22 May, Wednesday

    Time Temperature Precipitation Wind Pressure Humidity
    00:00 +12°C° 0 mm 4 mps 738 mmHg 85%
    01:00 +12°C° 0 mm 4 mps 738 mmHg 86%
    02:00 +11°C° 0 mm 4 mps 738 mmHg 87%
    03:00 +11°C° 0 mm 4 mps 738 mmHg 89%
    04:00 +11°C° 0 mm 4 mps 738 mmHg 91%
    05:00 +11°C° 0 mm 4 mps 738 mmHg 92%
    06:00 +12°C° 0 mm 4 mps 738 mmHg 87%
    07:00 +13°C° 0 mm 5 mps 738 mmHg 82%
    08:00 +15°C° 0 mm 5 mps 739 mmHg 77%
    09:00 +15°C° 0 mm 5 mps 739 mmHg 78%
    10:00 +15°C° 0 mm 5 mps 739 mmHg 79%
    11:00 +16°C° 0 mm 5 mps 739 mmHg 80%
    12:00 +18°C° 0.1 mm 4 mps 739 mmHg 78%
    13:00 +18°C° 0.1 mm 4 mps 739 mmHg 76%
    14:00 +19°C° 0.1 mm 3 mps 739 mmHg 75%
    15:00 +19°C° 0.3 mm 3 mps 739 mmHg 74%
    16:00 +19°C° 0.3 mm 3 mps 739 mmHg 74%
    17:00 +20°C° 0.3 mm 3 mps 739 mmHg 74%
    18:00 +19°C° 0.1 mm 2 mps 739 mmHg 78%
    19:00 +17°C° 0.1 mm 2 mps 739 mmHg 82%
    20:00 +16°C° 0.1 mm 1 mps 739 mmHg 86%
    21:00 +16°C° 0 mm 1 mps 739 mmHg 89%
    22:00 +15°C° 0 mm 1 mps 739 mmHg 91%
    23:00 +14°C° 0 mm 1 mps 740 mmHg 93%

    Day after tomorrow, 23 May, Thursday

    Time Temperature Precipitation Wind Pressure Humidity
    00:00 +13°C° 0 mm 1 mps 740 mmHg 93%
    01:00 +12°C° 0 mm 0 mps 740 mmHg 94%
    02:00 +12°C° 0 mm 0 mps 740 mmHg 94%
    03:00 +12°C° 0 mm 0 mps 740 mmHg 94%
    04:00 +12°C° 0 mm 0 mps 740 mmHg 95%
    05:00 +13°C° 0 mm 1 mps 740 mmHg 95%
    06:00 +14°C° 0 mm 1 mps 741 mmHg 90%
    07:00 +16°C° 0 mm 1 mps 741 mmHg 85%
    08:00 +19°C° 0 mm 1 mps 741 mmHg 80%
    09:00 +20°C° 0.2 mm 1 mps 741 mmHg 75%
    10:00 +21°C° 0.2 mm 1 mps 741 mmHg 70%
    11:00 +23°C° 0.2 mm 1 mps 741 mmHg 65%
    12:00 +23°C° 1.6 mm 2 mps 741 mmHg 68%
    13:00 +21°C° 1.6 mm 3 mps 741 mmHg 70%
    14:00 +21°C° 1.6 mm 4 mps 741 mmHg 73%
    15:00 +20°C° 1.4 mm 5 mps 741 mmHg 77%
    16:00 +20°C° 1.4 mm 5 mps 741 mmHg 82%
    17:00 +19°C° 1.4 mm 6 mps 741 mmHg 86%
    18:00 +16°C° 0.3 mm 6 mps 742 mmHg 88%
    19:00 +15°C° 0.3 mm 6 mps 742 mmHg 90%
    20:00 +14°C° 0.3 mm 6 mps 742 mmHg 92%
    21:00 +13°C° 0.3 mm 6 mps 742 mmHg 92%
    22:00 +11°C° 0.3 mm 6 mps 742 mmHg 92%
    23:00 +10°C° 0.3 mm 5 mps 743 mmHg 92%

    24 May, Friday

    Time Temperature Precipitation Wind Pressure Humidity
    00:00 +9°C° 0 mm 5 mps 743 mmHg 89%
    01:00 +9°C° 0 mm 5 mps 743 mmHg 87%
    02:00 +8°C° 0 mm 5 mps 743 mmHg 84%
    03:00 +8°C° 0 mm 5 mps 743 mmHg 83%
    04:00 +8°C° 0 mm 4 mps 743 mmHg 82%
    05:00 +8°C° 0 mm 4 mps 743 mmHg 82%
    06:00 +8°C° 0.1 mm 4 mps 743 mmHg 82%
    07:00 +10°C° 0.1 mm 4 mps 743 mmHg 82%
    08:00 +11°C° 0.1 mm 4 mps 743 mmHg 82%
    09:00 +12°C° 0 mm 4 mps 743 mmHg 78%
    10:00 +14°C° 0 mm 4 mps 743 mmHg 73%
    11:00 +15°C° 0 mm 4 mps 743 mmHg 69%
    12:00 +17°C° 0 mm 4 mps 743 mmHg 67%
    13:00 +18°C° 0 mm 4 mps 742 mmHg 65%
    14:00 +18°C° 0 mm 4 mps 742 mmHg 63%
    15:00 +18°C° 0 mm 4 mps 742 mmHg 62%
    16:00 +19°C° 0 mm 4 mps 742 mmHg 62%
    17:00 +19°C° 0 mm 4 mps 741 mmHg 61%
    18:00 +18°C° 0 mm 3 mps 741 mmHg 67%
    19:00 +17°C° 0 mm 3 mps 741 mmHg 73%
    20:00 +16°C° 0 mm 2 mps 741 mmHg 79%
    21:00 +15°C° 0 mm 2 mps 741 mmHg 82%
    22:00 +14°C° 0 mm 2 mps 741 mmHg 84%
    23:00 +12°C° 0 mm 2 mps 741 mmHg 87%

    25 May, Saturday

    Time Temperature Precipitation Wind Pressure Humidity
    00:00 +12°C° 0 mm 2 mps 741 mmHg 89%
    01:00 +10°C° 0 mm 2 mps 741 mmHg 91%
    02:00 +9°C° 0 mm 2 mps 741 mmHg 92%
    03:00 +9°C° 0 mm 2 mps 741 mmHg 92%
    04:00 +9°C° 0 mm 2 mps 741 mmHg 91%
    05:00 +9°C° 0 mm 1 mps 741 mmHg 91%
    06:00 +11°C° 0 mm 1 mps 742 mmHg 83%
    07:00 +13°C° 0 mm 1 mps 742 mmHg 75%
    08:00 +15°C° 0 mm 1 mps 742 mmHg 67%
    09:00 +18°C° 0 mm 1 mps 741 mmHg 65%
    10:00 +18°C° 0 mm 2 mps 741 mmHg 62%
    11:00 +19°C° 0 mm 2 mps 741 mmHg 60%
    12:00 +20°C° 0.3 mm 3 mps 741 mmHg 61%
    13:00 +20°C° 0.3 mm 3 mps 741 mmHg 63%
    14:00 +20°C° 0.3 mm 4 mps 741 mmHg 64%
    15:00 +20°C° 0.5 mm 4 mps 740 mmHg 66%
    16:00 +20°C° 0.5 mm 4 mps 740 mmHg 68%
    17:00 +20°C° 0.5 mm 4 mps 740 mmHg 69%
    18:00 +19°C° 0.5 mm 3 mps 740 mmHg 75%
    19:00 +17°C° 0.5 mm 3 mps 740 mmHg 81%
    20:00 +16°C° 0.5 mm 2 mps 740 mmHg 86%
    21:00 +15°C° 0 mm 2 mps 740 mmHg 89%
    22:00 +14°C° 0 mm 2 mps 740 mmHg 92%
    23:00 +13°C° 0 mm 2 mps 741 mmHg 95%

    26 May, Sunday

    Time Temperature Precipitation Wind Pressure Humidity
    00:00 +12°C° 0 mm 2 mps 741 mmHg 96%
    01:00 +12°C° 0 mm 2 mps 741 mmHg 97%
    02:00 +10°C° 0 mm 2 mps 741 mmHg 97%
    03:00 +12°C° 0 mm 2 mps 741 mmHg 97%
    04:00 +12°C° 0 mm 2 mps 741 mmHg 97%
    05:00 +12°C° 0 mm 2 mps 742 mmHg 96%
    06:00 +11°C° 0 mm 3 mps 742 mmHg 92%
    07:00 +12°C° 0 mm 3 mps 742 mmHg 87%
    08:00 +12°C° 0 mm 4 mps 742 mmHg 82%
    09:00 +13°C° 0 mm 4 mps 742 mmHg 76%
    10:00 +14°C° 0 mm 5 mps 743 mmHg 70%
    11:00 +15°C° 0 mm 5 mps 743 mmHg 64%
    12:00 +14°C° 0.1 mm 5 mps 743 mmHg 65%
    13:00 +14°C° 0.1 mm 5 mps 743 mmHg 65%
    14:00 +14°C° 0.1 mm 4 mps 743 mmHg 66%
    15:00 +14°C° 0.1 mm 4 mps 743 mmHg 68%
    16:00 +14°C° 0.1 mm 4 mps 743 mmHg 69%
    17:00 +14°C° 0.1 mm 4 mps 743 mmHg 71%
    18:00 +13°C° 0.1 mm 3 mps 743 mmHg 76%
    19:00 +13°C° 0.1 mm 3 mps 743 mmHg 80%
    20:00 +13°C° 0.1 mm 2 mps 743 mmHg 84%
    21:00 +12°C° 0 mm 2 mps 743 mmHg 86%
    22:00 +10°C° 0 mm 1 mps 743 mmHg 88%
    23:00 +9°C° 0 mm 1 mps 743 mmHg 90%
    Show more